Location: St. Louis
(38.6270°N, 90.1994°W)
Time: 20:37:49
(UTC-06:00)

Altair - Pass Details

Date: 03 December 2021
Orbit: 1501 x 1683 km, 47.2° (Epoch: 26 January)

Event Time Altitude Azimuth Distance (km) Brightness Sun altitude
Rises 17:39:26 0° 270° (W) 4,745 11.6 -11.5°
Reaches altitude 10° 17:42:41 10° 275° (W) 3,737 10.7 -12.1°
Maximum altitude 17:51:49 53° 351° (N) 1,822 7.8 -13.8°
Enters shadow 17:58:39 19° 61° (ENE) 3,036 8.4 -15.1°
